CDT,Max TemperatureF,Mean TemperatureF,Min TemperatureF,Max Dew PointF,MeanDew PointF,Min DewpointF,Max Humidity, Mean Humidity, Min Humidity, Max Sea Level PressureIn, Mean Sea Level PressureIn, Min Sea Level PressureIn, Max VisibilityMiles, Mean VisibilityMiles, Min VisibilityMiles, Max Wind SpeedMPH, Mean Wind SpeedMPH, Max Gust SpeedMPH,PrecipitationIn, CloudCover, Events, WindDirDegrees
2012-10-1,71,61,51,54,49,43,94,68,35,29.87,29.84,29.81,10,10,7,12,2,16,0.00,0,,350
2012-10-2,73,60,48,52,46,41,94,62,41,29.93,29.89,29.86,10,10,10,9,4,,0.00,0,,306
2012-10-3,77,62,46,50,46,41,100,65,28,30.00,29.95,29.90,10,10,7,12,3,,0.00,0,,174
2012-10-4,62,54,46,54,47,37,93,71,52,30.26,30.14,30.00,10,10,10,14,7,18,0.00,5,Rain-Thunderstorm,249
2012-10-5,50,42,33,45,38,32,93,80,54,30.29,30.25,30.21,10,10,2,16,4,22,0.01,6,Rain-Thunderstorm,357
2012-10-6,44,38,32,36,31,27,100,70,49,30.33,30.29,30.27,10,10,10,9,3,,0.00,4,,315
2012-10-7,53,42,30,32,30,23,93,65,33,30.33,30.25,30.16,10,10,10,8,3,,0.00,1,,226
2012-10-8,60,46,33,36,32,30,87,61,34,30.17,30.10,30.00,10,10,10,20,8,25,0.00,0,,179
2012-10-9,66,54,41,50,41,34,88,68,49,30.12,29.97,29.89,10,10,7,16,8,22,0.00,3,,204
2012-10-10,60,46,32,34,31,28,93,56,29,30.30,30.21,30.13,10,10,10,6,2,,0.00,0,,207
2012-10-11,64,50,37,52,43,32,82,70,55,30.18,30.13,30.07,10,10,10,10,5,,0.00,5,,143
2012-10-12,60,55,50,54,43,34,94,66,50,30.33,30.23,30.09,10,10,10,16,9,23,0.01,8,Rain,68
2012-10-13,66,60,55,63,60,54,94,92,83,30.08,29.90,29.68,10,8,2,18,9,18,0.01,7,Rain-Thunderstorm,152
2012-10-14,68,59,50,61,50,39,94,68,37,30.00,29.80,29.57,10,10,10,20,9,28,0.00,3,,249
2012-10-15,73,57,41,46,44,39,93,65,35,30.03,29.98,29.88,10,10,10,8,3,17,0.00,1,,148
2012-10-16,78,71,62,46,45,45,52,40,32,29.70,29.59,29.55,10,10,10,22,16,31,0.00,0,,186
2012-10-17,64,57,50,57,47,30,88,64,39,29.65,29.53,29.47,10,10,10,18,9,26,0.00,3,Rain,223
2012-10-18,59,52,44,36,30,28,61,46,31,29.67,29.65,29.62,10,10,10,26,13,37,0.00,4,,250
2012-10-19,50,47,44,43,39,37,87,71,62,29.84,29.75,29.63,10,10,10,21,12,29,0.00,8,Rain,278
2012-10-20,69,53,37,43,40,36,100,64,33,29.89,29.82,29.74,10,10,2,9,3,,0.00,1,,102
2012-10-21,73,60,46,63,54,43,87,73,57,29.85,29.81,29.78,10,10,10,13,5,18,0.00,3,,141
2012-10-22,78,71,64,66,64,61,94,76,61,29.88,29.83,29.77,10,10,10,17,9,26,0.00,4,,169
2012-10-23,77,70,64,64,63,61,88,78,61,29.88,29.83,29.77,10,10,5,16,10,24,0.00,7,Rain-Thunderstorm,164
2012-10-24,82,73,64,64,62,59,88,68,51,29.86,29.82,29.75,10,10,10,18,12,26,0.00,1,,168
2012-10-25,69,54,39,61,46,30,93,76,66,30.28,29.92,29.69,10,10,7,21,12,29,0.01,6,Rain,277
2012-10-26,46,40,32,30,29,27,87,66,50,30.45,30.38,30.28,10,10,10,16,11,21,0.00,3,,345
2012-10-27,44,36,28,28,27,27,93,74,49,30.41,30.35,30.26,10,10,7,14,5,18,0.00,0,,360
2012-10-28,50,39,28,30,28,27,93,68,40,30.36,30.30,30.25,10,10,3,7,2,,0.00,0,,346
2012-10-29,53,42,30,32,30,27,93,67,38,30.34,30.26,30.15,10,10,4,8,2,,0.00,3,,107
2012-10-30,53,42,30,32,28,23,93,61,38,30.14,30.05,29.99,10,10,10,10,2,,0.00,3,,37
2012-10-31,59,46,33,32,30,28,87,57,33,30.07,30.03,30.00,10,10,1,7,2,,0.00,1,,299